Find Starlink 36237

NORAD ID: 68337 Int'l Des: 2026-059 Owner: SPXS Country: US Constellation: starlink operational
LEOCIRCULAR

实时位置

正在加载3D地球...

关于 Starlink 36237

正在加载描述...

即将过境

Passes for default location (London). Set your location on the main map for personalized predictions.

高度历史

Loading altitude history...

两行轨道根数

1 68337U 26059S 26127.24990675 .00044332 00000-0 79994-3 0 9996
2 68337 53.1588 73.9630 0001327 83.5885 276.5276 15.49333258 7170
Epoch: May 7, 2026 • Age: 9 hours

当前状态

高度 419.4 km
速度 7.66 km/s
星下点 -0.26°S, 22.84°W
发射日期 Mar 22, 2026
运行时间 0.1 years
类型 internet

技术详情

分类 Payload
质量 575.00 kg
干质量 530.00 kg
总质量 575.00 kg
长度 0.30 m
直径 4.10 m
跨度 29.00 m
形状 Box + pan
制造商 SPXS
平台类型 Starlink V2MO
阶段状态 In Orbit
所有者/国家 SPXS/US

Most Searched